#timestamp,LO_Frequency,Hit 
1498010415.1,286047017.9,N
1498010435.9,286047018.0,N
1498010455.7,286047015.8,N
1498010475.5,286047018.7,N
1498010495.4,286047016.3,N
1498010515.2,286047016.5,N
1498010535.0,286047015.7,N
1498010535.9,286047015.7,N
1498010555.7,286047016.3,N
1498010575.6,286047018.0,N
1498010595.4,286047018.5,N
1498010615.2,286047019.6,N
1498010635.1,286047017.3,N
1498010636.0,286047017.3,N
1498010655.8,286047020.4,N
1498010675.6,286047019.6,N
1498010695.5,286047018.0,N
1498010715.3,286047017.4,N
1498010735.1,286047018.7,N
1498010755.9,286047020.4,N
1498010775.7,286047019.4,N
1498010795.5,286047017.4,N
1498010815.3,286047017.3,N
1498010835.2,286047017.9,N
1498010855.0,286047019.7,N
1498010855.9,286047019.7,N
1498010875.7,286047020.3,N
1498010895.6,286047018.7,N
1498010915.4,286047019.9,N
1498010935.2,286047018.6,N
1498010955.1,286047020.3,N
1498010956.0,286047020.3,N
1498010975.8,286047021.7,N
1498010995.6,286047021.8,N
1498011015.5,286047021.4,N
1498011035.3,286047021.3,N
1498011055.1,286047023.0,N
1498011075.9,286047022.7,N
1498011095.7,286047023.1,N
1498011115.5,286047020.5,N
1498011135.3,286047020.5,N
1498011155.2,286047025.1,N
1498011175.0,286047022.9,N
1498011175.9,286047022.9,N
1498011195.7,286047025.0,N
1498011215.6,286047025.2,N
1498011235.4,286047024.2,N
1498011255.2,286047022.1,N
1498011275.1,286047022.6,N
1498011276.0,286047022.6,N
1498011295.8,286047024.8,N
1498011315.6,286047022.1,N
1498011335.5,286047022.1,N
1498011355.3,286047024.9,N
1498011375.1,286047024.3,N
1498011395.8,286047024.3,N
1498011415.7,286047025.6,N
1498011435.5,286047025.5,N
1498011455.3,286047024.0,N
1498011475.2,286047024.3,N
1498011495.9,286047026.1,N
1498011515.7,286047026.3,N
1498011535.6,286047026.2,N
1498011555.4,286047027.2,N
1498011575.2,286047026.2,N
1498011595.0,286047027.5,N
1498011596.0,286047027.5,N
1498011615.8,286047029.8,N
1498011635.6,286047027.4,N
1498011655.4,286047028.2,N
1498011675.3,286047025.8,N
1498011695.1,286047026.7,N
1498011715.8,286047028.1,N
1498011735.7,286047026.9,N
1498011755.5,286047029.6,N
1498011775.3,286047028.9,N
1498011795.2,286047029.0,N
1498011815.9,286047031.5,N
1498011835.7,286047028.9,N
1498011855.5,286047029.1,N
1498011875.4,286047031.6,N
1498011895.2,286047031.1,N
1498011915.0,286047030.4,N
1498011915.9,286047030.4,N
1498011935.8,286047030.4,N
1498011955.6,286047030.4,N
1498011975.4,286047030.4,N
1498011995.3,286047033.1,N
1498012015.1,286047030.3,N
1498012016.0,286047030.3,N
1498012035.8,286047030.5,N
1498012055.7,286047034.8,N
1498012075.5,286047034.6,N
1498012095.3,286047033.6,N
1498012115.1,286047033.3,N
1498012135.9,286047033.9,N
1498012155.7,286047033.3,N
1498012175.5,286047033.5,N
1498012195.4,286047031.8,N
1498012215.2,286047033.2,N
1498012235.0,286047033.1,N
1498012235.9,286047033.1,N
1498012255.8,286047030.8,N
1498012275.6,286047032.9,N
1498012295.4,286047032.8,N
1498012315.3,286047032.1,N
1498012335.1,286047034.3,Y
1498012336.0,286047034.3,Y
1498012355.8,286047004.0,N
1498012375.7,286047002.6,N
1498012395.5,286047003.9,N
1498012415.3,286047002.1,N
1498012435.2,286047003.7,N
1498012455.9,286047001.8,N
1498012475.7,286047002.1,N
1498012495.6,286047005.2,N
1498012515.4,286047005.2,N
1498012535.2,286047005.4,N
1498012555.0,286047005.8,N
1498012555.9,286047005.8,N
1498012575.8,286047005.1,N
1498012595.6,286047005.4,N
1498012615.4,286047005.3,N
1498012635.1,286047005.4,N
1498012655.8,286047005.4,N
1498012675.7,286047005.4,N
1498012695.5,286047005.8,N
1498012715.3,286047005.4,N
1498012735.2,286047004.5,N
1498012755.9,286047007.5,N
1498012775.7,286047007.4,N
1498012795.6,286047009.1,N
1498012815.4,286047009.2,N
1498012835.2,286047006.3,N
1498012855.0,286047006.1,N
1498012856.0,286047006.1,N
1498012875.8,286047009.1,N
1498012895.6,286047007.5,N
1498012915.4,286047006.4,N
1498012935.3,286047006.8,N
1498012955.1,286047007.5,N
1498012975.8,286047006.5,N
1498012995.7,286047006.8,N
1498013015.5,286047008.8,N
1498013035.3,286047006.6,N
1498013055.2,286047006.2,N
1498013075.9,286047006.3,N
1498013095.7,286047007.7,N
1498013115.5,286047009.7,N
1498013135.4,286047010.7,N
1498013155.2,286047010.7,N
1498013175.0,286047010.5,N
1498013175.9,286047010.5,N
1498013195.8,286047012.4,N
1498013215.6,286047009.5,N
1498013235.4,286047010.6,N
1498013255.3,286047010.8,N
1498013275.1,286047010.7,N
1498013276.0,286047010.7,N
1498013295.8,286047009.5,N
1498013315.7,286047012.4,N
1498013335.5,286047012.0,N
1498013355.3,286047012.7,N
1498013375.2,286047012.6,N
1498013395.9,286047013.8,N
1498013415.7,286047011.7,N
1498013435.5,286047009.6,N
1498013455.4,286047009.7,N
1498013475.2,286047012.0,N
1498013495.0,286047011.7,N
1498013495.9,286047011.7,N
1498013515.8,286047011.7,N
1498013535.6,286047013.5,N
1498013555.4,286047014.0,N
1498013575.3,286047011.5,N
1498013595.1,286047011.7,N
1498013596.0,286047011.7,N
1498013615.8,286047011.6,N
1498013635.7,286047009.7,N
1498013655.5,286047011.0,N
1498013675.3,286047011.3,N
1498013695.1,286047013.9,N
1498013715.9,286047013.9,N
1498013735.7,286047012.9,N
1498013755.5,286047014.9,N
1498013775.4,286047013.0,N
1498013795.2,286047012.5,N
1498013815.0,286047013.0,N
1498013815.9,286047013.0,N
1498013835.8,286047012.5,N
1498013855.6,286047013.0,N
1498013875.4,286047013.6,N
1498013895.3,286047013.5,N
1498013915.1,286047013.2,N
1498013916.0,286047013.2,N
1498013935.8,286047013.3,N
1498013955.7,286047013.1,N
1498013975.5,286047012.7,N
1498013995.3,286047012.8,N
